Theta_e
330 331 331 330 330 330 329 329 330 329 329 328 328 328 328 327 325 325 324 323 322 321
328 329 329 330 331 331 331 330 330 329 328 328 328 327 327 325 324 324 324 323 323 322
324 327 328 329 329 330 331 331 329 328 327 327 327 327 326 324 324 323 322 321 321 320
324 325 326 326 328 329 330 330 329 327 326 325 325 325 324 323 322 320 320 320 318 317
320 323 324 324 326 327 328 329 328 326 324 324 323 324 323 321 320 319 318 318 317 316
319 321 322 323 324 324 323 324 324 324 323 322 323 323 322 321 320 319 318 318 317 316
319 321 322 323 322 321 322 322 322 322 322 322 322 322 322 321 319 319 318 318 317 316
315 317 317 318 318 317 316 317 318 318 319 319 318 317 319 318 317 316 316 311 308 306
304 305 307 309 306 303 303 303 302 302 303 307 304 296 297 303 308 305 304 302 298 296
300 300 301 299 297 295 298 297 295 296 296 295 295 296 295 295 301 300 299 296 293 290
294 294 295 295 294 293 293 294 293 293 293 292 291 294 294 293 296 293 292 291 291 290
293 292 293 292 294 294 292 290 290 289 288 288 289 293 293 292 290 288 287 288 289 289
291 290 292 292 290 288 288 286 286 286 287 286 287 291 291 291 288 287 287 286 286 287
289 288 291 289 287 287 286 286 285 285 286 287 287 289 290 290 287 287 287 286 286 286
Wind_Speed
19 13 13 15 13 11 11 12 13 15 16 17 15 14 14 11 11 13 12 16 13 10
15 17 15 17 14 11 13 11 12 13 14 16 16 16 14 11 13 13 12 13 13 12
13 14 15 14 15 14 13 14 12 13 13 13 14 14 15 12 12 12 10 10 12 11
10 12 12 12 13 14 13 13 13 13 13 13 13 13 13 13 13 13 13 12 12 13
11 11 11 12 12 11 13 12 12 10 10 12 14 15 15 14 13 14 14 14 12 12
9 10 11 11 10 8 9 9 8 8 11 12 13 14 13 14 14 14 14 12 12 12
7 8 8 8 10 10 6 7 6 8 9 10 11 11 11 12 11 11 10 11 12 10
6 5 6 5 4 4 3 4 4 4 5 6 7 5 8 7 8 9 9 6 5 5
2 4 4 3 2 2 1 2 2 3 4 4 1 7 7 5 5 5 5 5 3 3
3 2 2 3 3 3 2 2 1 2 1 3 3 5 4 3 2 2 1 3 4 4
4 4 3 3 3 2 0 0 0 1 1 3 2 3 6 6 5 6 5 6 5 6
5 4 4 4 4 2 1 2 2 2 3 2 1 2 4 6 6 6 6 4 4 5
3 2 4 4 4 2 2 3 3 4 4 4 4 4 2 4 2 4 5 5 4 5
2 2 4 3 1 3 4 5 5 5 4 5 3 5 6 5 3 3 3 3 3 2
Wind_Direction
232 230 229 231 229 224 224 223 220 208 209 215 218 220 221 217 218 219 221 227 226 232
231 233 235 237 232 232 228 225 222 217 218 217 211 215 216 217 217 217 219 226 229 233
236 234 237 239 242 233 232 225 220 218 218 219 224 219 213 218 220 219 218 221 226 229
237 240 241 240 238 242 237 231 223 219 219 218 218 220 215 215 219 221 220 219 221 227
240 232 236 240 241 240 241 237 232 219 216 219 220 221 216 213 209 214 213 218 219 227
246 235 234 235 237 234 241 242 222 228 216 217 228 228 222 215 215 216 218 217 218 225
271 262 253 249 248 247 240 245 231 229 227 228 229 228 228 222 221 224 224 222 224 219
270 287 291 298 294 313 318 302 289 251 232 232 234 231 225 227 219 221 225 213 208 210
274 297 278 283 304 308 307 333 355 315 312 271 21 20 344 280 210 216 207 198 172 91
251 259 315 302 326 321 310 13 2 22 72 90 69 35 33 53 136 148 121 108 123 98
227 226 195 237 223 209 224 150 43 45 78 120 83 90 88 79 88 82 77 92 114 136
218 220 195 209 212 168 166 84 76 57 47 67 50 85 120 113 116 113 100 95 95 130
233 218 216 205 162 121 107 95 85 59 41 39 35 49 67 106 94 110 116 93 73 82
227 201 216 117 97 130 122 108 89 81 53 48 37 54 67 86 98 109 97 108 100 69